Date,TemperatureHighF,TemperatureAvgF,TemperatureLowF,DewpointHighF,DewpointAvgF,DewpointLowF,HumidityHigh,HumidityAvg,HumidityLow,PressureMaxIn,PressureMinIn,WindSpeedMaxMPH,WindSpeedAvgMPH,GustSpeedMaxMPH,PrecipitationSumIn
2014-3-1,78.6,63.9,51.7,64.4,57.1,50.7,98,81,46,30.16,30.04,10,3,12,0.02
2014-3-2,80.9,66.4,54.7,67.8,59.5,54.1,99,81,48,30.17,30.04,10,3,15,0.01
2014-3-3,84.9,70.7,57.2,64.5,60.5,55.8,98,74,40,30.06,29.93,9,3,13,0.00
2014-3-4,82.8,66.9,57.1,68.6,61.3,55.4,98,84,54,30.04,29.95,9,2,11,0.00
2014-3-6,78.1,72.5,66.9,72.7,69.5,66.0,97,91,82,29.86,29.66,10,6,12,0.00
2014-3-7,74.4,65.1,52.2,66.0,58.2,49.1,99,80,54,30.03,29.75,14,7,22,0.00
2014-3-8,73.4,60.1,46.5,59.7,53.3,43.4,98,79,60,30.13,30.02,9,5,13,0.00
2014-3-9,79.5,64.5,52.5,63.6,57.7,52.2,100,81,50,30.16,30.05,9,3,12,0.01
2014-3-10,84.5,67.8,55.3,64.0,59.5,54.7,100,78,41,30.10,29.93,7,2,10,0.00
2014-3-11,82.3,68.4,55.6,66.9,59.4,52.9,96,76,43,29.99,29.81,11,4,15,0.00
2014-3-12,86.8,73.2,63.0,71.3,67.1,61.8,98,83,50,29.84,29.71,14,7,19,0.00
2014-3-13,70.5,62.4,51.1,64.4,50.8,39.6,97,69,35,30.17,29.83,13,6,20,0.01
2014-3-14,73.7,61.1,46.6,56.0,50.9,43.1,92,71,49,30.24,30.15,13,6,19,0.00
2014-3-15,79.7,65.8,51.3,62.3,57.4,50.2,97,77,50,30.17,30.02,11,4,15,0.00
2014-3-16,85.3,70.7,54.9,65.0,60.6,54.3,99,74,44,30.03,29.77,14,6,23,0.00
2014-3-17,83.3,75.3,66.5,72.0,68.9,64.0,96,81,67,29.80,29.66,17,8,23,0.00
2014-3-18,78.0,70.6,58.3,72.7,62.2,50.1,97,78,39,30.01,29.60,18,8,26,0.27
2014-3-19,79.1,66.7,55.5,66.2,60.7,55.2,99,83,57,30.06,29.98,9,4,11,0.01
2014-3-20,80.6,70.4,59.0,68.4,64.8,58.2,99,84,63,30.04,29.93,11,5,15,0.00
2014-3-21,79.7,71.2,63.3,69.1,65.2,62.4,99,83,63,30.06,29.97,15,7,22,0.01
2014-3-22,86.7,75.2,65.0,70.6,65.3,60.8,97,74,43,30.05,29.92,14,4,19,0.00
2014-3-23,86.1,73.4,61.3,71.9,64.8,59.7,96,76,51,30.02,29.91,10,4,14,0.01
2014-3-24,76.5,69.5,64.8,68.0,66.6,64.2,98,91,70,30.03,29.88,6,3,10,0.17
2014-3-25,79.3,68.4,57.3,69.9,62.8,48.3,99,83,61,29.98,29.80,11,7,19,0.20
2014-3-26,63.0,54.7,45.6,48.9,43.5,32.3,90,67,52,30.26,29.99,15,8,20,0.00
2014-3-27,72.7,63.4,50.8,62.3,56.1,47.4,97,78,54,30.30,30.18,12,5,14,0.01
2014-3-28,82.5,73.6,66.4,69.2,65.3,61.8,91,76,53,30.19,30.01,14,7,20,0.01
2014-3-29,83.6,73.3,65.3,74.7,69.6,63.8,97,89,72,30.05,29.84,13,6,24,0.63
2014-3-30,66.4,65.7,64.8,64.6,64.0,63.5,97,94,91,29.91,29.88,4,2,8,0.00
2014-3-31,77.5,68.0,54.4,59.8,56.2,52.4,96,68,43,30.13,30.05,8,4,10,0.00